| time (UTC) | temp F | wind direction | speed knots | gust knots | rain 1hr in | rain 24hr in | rain mn in | humidity % | barometer mb |
| 20260509001515 | 60 | 204 | 0.9 | 4.3 | 0.00 | 0.03 | 0.03 | 69 | 1006.8 |
| 20260509000012 | 60 | 222 | 1.7 | 5.2 | 0.00 | 0.03 | 0.03 | 69 | 1006.8 |
| 20260508234510 | 60 | 195 | 1.7 | 3.5 | 0.00 | 0.03 | 0.03 | 68 | 1006.8 |
| 20260508233008 | 61 | 160 | 1.7 | 5.2 | 0.00 | 0.03 | 0.03 | 68 | 1006.9 |
| 20260508231607 | 61 | 203 | 2.6 | 7.0 | 0.00 | 0.03 | 0.03 | 68 | 1007.0 |
| 20260508230008 | 61 | 207 | 2.6 | 8.7 | 0.00 | 0.03 | 0.03 | 68 | 1006.9 |
| 20260508224559 | 63 | 222 | 3.5 | 8.7 | 0.00 | 0.03 | 0.03 | 69 | 1007.0 |
| 20260508223057 | 63 | 186 | 2.6 | 12.2 | 0.00 | 0.03 | 0.03 | 69 | 1007.0 |
| 20260508221555 | 63 | 160 | 3.5 | 8.7 | 0.00 | 0.03 | 0.03 | 69 | 1007.1 |
| 20260508220053 | 63 | 179 | 2.6 | 7.0 | 0.00 | 0.03 | 0.03 | 69 | 1007.1 |
| 20260508214548 | 62 | 178 | 0.9 | 2.6 | 0.00 | 0.03 | 0.03 | 69 | 1007.2 |
| 20260508213040 | 62 | 49 | 0.9 | 4.3 | 0.00 | 0.03 | 0.03 | 69 | 1007.3 |
| 20260508211537 | 60 | 198 | 0.9 | 3.5 | 0.00 | 0.03 | 0.03 | 69 | 1007.6 |
| 20260508210039 | 60 | 179 | 0.9 | 3.5 | 0.00 | 0.03 | 0.03 | 68 | 1007.8 |
| 20260508204531 | 61 | 55 | 0.9 | 3.5 | 0.00 | 0.03 | 0.03 | 68 | 1007.9 |
| 20260508203026 | 61 | 67 | 1.7 | 6.1 | 0.00 | 0.03 | 0.03 | 69 | 1008.3 |
| 20260508201523 | 61 | 128 | 2.6 | 5.2 | 0.00 | 0.03 | 0.03 | 68 | 1008.6 |
| 20260508200021 | 61 | 84 | 0.9 | 7.0 | 0.00 | 0.03 | 0.03 | 68 | 1008.9 |
| 20260508194516 | 62 | 188 | 1.7 | 6.1 | 0.00 | 0.03 | 0.03 | 68 | 1009.2 |
| 20260508193011 | 62 | 200 | 0.9 | 7.8 | 0.00 | 0.03 | 0.03 | 69 | 1009.4 |
| 20260508191508 | 61 | 162 | 0.9 | 4.3 | 0.00 | 0.03 | 0.03 | 69 | 1009.4 |
| 20260508190105 | 62 | 58 | 1.7 | 7.0 | 0.00 | 0.03 | 0.03 | 69 | 1009.6 |
| 20260508184502 | 62 | 134 | 0.9 | 5.2 | 0.00 | 0.03 | 0.03 | 69 | 1009.8 |
| 20260508183158 | 61 | 153 | 1.7 | 7.8 | 0.00 | 0.03 | 0.03 | 69 | 1009.8 |
| 20260508181606 | 60 | 67 | 0.9 | 5.2 | 0.00 | 0.03 | 0.03 | 69 | 1010.2 |
| 20260508180052 | 61 | 58 | 0.9 | 4.3 | 0.00 | 0.03 | 0.03 | 69 | 1010.3 |
| 20260508174547 | 61 | 208 | 1.7 | 5.2 | 0.00 | 0.03 | 0.03 | 70 | 1010.5 |
| 20260508173046 | 60 | 94 | 0.9 | 7.0 | 0.00 | 0.03 | 0.03 | 70 | 1010.9 |
| 20260508171538 | 60 | 189 | 1.7 | 3.5 | 0.00 | 0.03 | 0.03 | 70 | 1011.2 |
| 20260508170039 | 59 | 75 | 0.9 | 3.5 | 0.00 | 0.03 | 0.03 | 70 | 1011.2 |
| 20260508164532 | 59 | 160 | 0.9 | 5.2 | 0.00 | 0.03 | 0.03 | 70 | 1011.4 |
| 20260508163029 | 58 | 111 | 1.7 | 4.3 | 0.00 | 0.03 | 0.03 | 70 | 1011.6 |
| 20260508161525 | 58 | 65 | 1.7 | 6.1 | 0.00 | 0.03 | 0.03 | 71 | 1011.7 |
| 20260508160023 | 58 | 159 | 0.9 | 3.5 | 0.00 | 0.03 | 0.03 | 71 | 1011.8 |
| 20260508154522 | 58 | 204 | 1.7 | 3.5 | 0.00 | 0.03 | 0.03 | 71 | 1011.9 |
| 20260508153016 | 57 | 141 | 0.0 | 4.3 | 0.00 | 0.03 | 0.03 | 71 | 1012.0 |
| 20260508151514 | 56 | 346 | 0.0 | 2.6 | 0.00 | 0.03 | 0.03 | 71 | 1012.0 |
| 20260508150013 | 56 | 62 | 0.0 | 3.5 | 0.00 | 0.03 | 0.03 | 72 | 1012.1 |
| 20260508144510 | 55 | 169 | 0.9 | 3.5 | 0.00 | 0.03 | 0.03 | 72 | 1012.4 |
| 20260508143001 | 53 | 59 | 0.9 | 3.5 | 0.00 | 0.03 | 0.03 | 72 | 1012.3 |
| 20260508141608 | 53 | 13 | 0.0 | 1.7 | 0.00 | 0.03 | 0.03 | 72 | 1012.5 |
| 20260508140056 | 52 | 141 | 0.0 | 1.7 | 0.00 | 0.03 | 0.03 | 72 | 1012.6 |
| 20260508134557 | 51 | 183 | 0.9 | 3.5 | 0.00 | 0.03 | 0.03 | 73 | 1012.7 |
| 20260508133110 | 50 | 122 | 0.9 | 2.6 | 0.00 | 0.03 | 0.03 | 73 | 1012.7 |
| 20260508131547 | 49 | 172 | 0.0 | 2.6 | 0.00 | 0.03 | 0.03 | 73 | 1012.7 |
| 20260508130141 | 49 | 77 | 0.9 | 3.5 | 0.00 | 0.03 | 0.03 | 73 | 1012.7 |
| 20260508124539 | 48 | 193 | 0.0 | 2.6 | 0.00 | 0.03 | 0.03 | 73 | 1012.5 |
| 20260508123045 | 47 | 146 | 0.0 | 1.7 | 0.00 | 0.03 | 0.03 | 73 | 1012.5 |
| 20260508121537 | 46 | 8 | 0.0 | 0.9 | 0.00 | 0.03 | 0.03 | 73 | 1012.5 |
| 20260508120032 | 44 | 356 | 0.0 | 0.9 | 0.00 | 0.03 | 0.03 | 73 | 1012.3 |
| 20260508114530 | 42 | 352 | 0.0 | 0.0 | 0.00 | 0.03 | 0.03 | 72 | 1012.2 |
| 20260508113028 | 40 | 352 | 0.0 | 0.0 | 0.00 | 0.03 | 0.03 | 71 | 1012.1 |
| 20260508111527 | 38 | 353 | 0.0 | 0.0 | 0.00 | 0.03 | 0.03 | 71 | 1011.9 |
| 20260508110043 | 38 | 353 | 0.0 | 0.0 | 0.00 | 0.03 | 0.03 | 70 | 1011.9 |
| 20260508104522 | 37 | 353 | 0.0 | 0.0 | 0.00 | 0.03 | 0.03 | 70 | 1011.9 |
| 20260508103020 | 37 | 353 | 0.0 | 0.0 | 0.00 | 0.03 | 0.03 | 70 | 1011.8 |
| 20260508101517 | 38 | 353 | 0.0 | 0.0 | 0.00 | 0.03 | 0.03 | 70 | 1011.9 |
| 20260508100018 | 38 | 353 | 0.0 | 0.0 | 0.00 | 0.03 | 0.03 | 70 | 1011.9 |
| 20260508094511 | 39 | 353 | 0.0 | 0.0 | 0.00 | 0.03 | 0.03 | 70 | 1012.0 |
| 20260508093008 | 39 | 353 | 0.0 | 0.0 | 0.00 | 0.03 | 0.03 | 70 | 1012.1 |
| 20260508091503 | 40 | 353 | 0.0 | 0.0 | 0.00 | 0.03 | 0.03 | 69 | 1012.0 |
| 20260508090113 | 41 | 353 | 0.0 | 0.0 | 0.00 | 0.03 | 0.03 | 69 | 1011.9 |
| 20260508084556 | 42 | 353 | 0.0 | 0.0 | 0.00 | 0.03 | 0.03 | 69 | 1012.1 |
| 20260508083054 | 42 | 353 | 0.0 | 0.0 | 0.00 | 0.03 | 0.03 | 69 | 1011.8 |
| 20260508081601 | 42 | 353 | 0.0 | 0.0 | 0.00 | 0.03 | 0.03 | 69 | 1011.9 |
| 20260508080050 | 42 | 353 | 0.0 | 0.0 | 0.00 | 0.03 | 0.03 | 69 | 1012.2 |
| 20260508074547 | 43 | 353 | 0.0 | 0.0 | 0.00 | 0.03 | 0.03 | 69 | 1012.1 |
| 20260508073048 | 43 | 353 | 0.0 | 1.7 | 0.00 | 0.03 | 0.03 | 68 | 1012.1 |
| 20260508071554 | 43 | 22 | 0.0 | 0.0 | 0.00 | 0.03 | 0.03 | 68 | 1012.1 |
| 20260508070043 | 44 | 21 | 0.9 | 3.5 | 0.00 | 0.03 | 0.03 | 68 | 1011.9 |
| 20260508064540 | 43 | 3 | 0.0 | 1.7 | 0.00 | 0.03 | 0.03 | 67 | 1012.1 |
| 20260508063036 | 42 | 207 | 0.0 | 0.0 | 0.00 | 0.03 | 0.03 | 66 | 1012.1 |
| 20260508061536 | 42 | 207 | 0.0 | 0.0 | 0.00 | 0.03 | 0.03 | 66 | 1012.1 |
| 20260508060034 | 42 | 207 | 0.0 | 0.0 | 0.00 | 0.03 | 0.03 | 65 | 1012.2 |
| 20260508054527 | 43 | 207 | 0.0 | 0.0 | 0.02 | 0.03 | 0.03 | 65 | 1012.1 |
| 20260508053041 | 44 | 207 | 0.0 | 0.0 | 0.03 | 0.03 | 0.03 | 64 | 1012.1 |
| 20260508051518 | 45 | 207 | 0.0 | 0.0 | 0.03 | 0.03 | 0.03 | 64 | 1012.5 |
| 20260508050015 | 46 | 207 | 0.0 | 0.9 | 0.03 | 0.03 | 0.03 | 64 | 1012.4 |
| 20260508044508 | 49 | 274 | 1.7 | 8.7 | 0.01 | 0.01 | 0.01 | 64 | 1012.7 |
| 20260508043004 | 50 | 268 | 0.0 | 0.9 | 0.00 | 0.00 | 0.00 | 64 | 1012.2 |
| 20260508041502 | 50 | 162 | 0.0 | 4.3 | 0.00 | 0.00 | 0.00 | 64 | 1012.1 |
| 20260508040111 | 50 | 214 | 0.0 | 1.7 | 0.00 | 0.00 | 0.00 | 64 | 1012.0 |
| 20260508034600 | 50 | 194 | 0.0 | 0.9 | 0.00 | 0.00 | 0.00 | 64 | 1012.1 |
| 20260508033053 | 50 | 219 | 0.0 | 0.9 | 0.00 | 0.00 | 0.00 | 64 | 1012.3 |
| 20260508031551 | 50 | 217 | 0.0 | 0.9 | 0.00 | 0.00 | 0.00 | 64 | 1012.5 |
| 20260508030049 | 50 | 262 | 0.0 | 0.0 | 0.00 | 0.00 | 0.00 | 64 | 1012.3 |
| 20260508024556 | 50 | 262 | 0.0 | 0.9 | 0.00 | 0.00 | 0.00 | 64 | 1012.3 |
| 20260508023045 | 51 | 274 | 0.0 | 1.7 | 0.00 | 0.00 | 0.00 | 64 | 1012.3 |
| 20260508021544 | 51 | 274 | 0.0 | 1.7 | 0.00 | 0.00 | 0.00 | 63 | 1012.2 |
| 20260508020047 | 51 | 255 | 0.0 | 2.6 | 0.00 | 0.00 | 0.00 | 63 | 1012.2 |
| 20260508014542 | 51 | 268 | 0.0 | 2.6 | 0.00 | 0.00 | 0.00 | 63 | 1012.2 |
| 20260508013040 | 51 | 278 | 0.0 | 1.7 | 0.00 | 0.00 | 0.00 | 63 | 1012.1 |
| 20260508011546 | 52 | 280 | 1.7 | 5.2 | 0.00 | 0.00 | 0.00 | 63 | 1012.0 |
| 20260508010035 | 52 | 346 | 0.0 | 2.6 | 0.00 | 0.00 | 0.00 | 63 | 1011.6 |
| 20260508004534 | 52 | 335 | 0.0 | 5.2 | 0.00 | 0.00 | 0.00 | 63 | 1011.4 |
| 20260508003131 | 53 | 283 | 0.0 | 3.5 | 0.00 | 0.00 | 0.00 | 63 | 1011.4 |